sat.trackr.live / text

‹ back to catalog

STARLINK-35837

NORAD 66840 · 2025-280V

PAYLOAD ACTIVE UNKNOWN

§ Identity

Operator
Country
US
Launch date
2025-12-02
Launch site
AFWTR
Launch vehicle
Mass (kg)
RCS (m²)

Purposes: comms

External: N2YO · Heavens-Above · Gunter

§ Orbital elements

Epoch: 2026-05-25T03:06:48.149280Z

Period
96.11 min
Inclination
70.0006°
Eccentricity
0.0003227
Mean motion
14.98336811 rev/d
Perigee alt
569.8 km
Apogee alt
574.3 km
Semi-major
6,950.2 km
B*
2.7194e-4
RAAN
141.8153°
Arg perigee
267.9082°
Mean anomaly
92.1707°
Rev number
2,752

§ Raw data

STARLINK-358371 66840U 25280V   26145.12972395  .00003154  00000+0  27194-3 0  99952 66840  70.0006 141.8153 0003227 267.9082  92.1707 14.98336811 27526

JSON: /api/v1/satellites/66840 · /tle

For live sub-satellite position, see the globe view (requires WebGL).

§ Visibility from observer

Set your observer location to see the next 7 days of passes ≥ 10°. The values pass through the URL so the page stays shareable.

No JS? Fill the form by hand. The geolocation button needs JavaScript.